Torna al catalogo

INSAT 1D

AttivoComunicazioniGEO
NORAD 20643·PAYLOAD·🇮🇳 India

Lanciato Jun 12, 1990 da Cape Canaveral Space Force Station

Loading…

TLE

AggiornatoSource: Space-Track

Epoca: Sep 13, 2026, 19:21 UTC

1 20643U 90051A   26256.80672819 -.00000155  00000-0  00000-0 0  9994
2 20643  14.5973 353.2696 0017186 199.2389 169.8675  1.00260806119640

Traccia INSAT 1D in tempo reale con AllMySat

Download on the App Store